When you browse on this site, cookies collect data to enhance your experience and personalize the content and advertising you see.
Visit our Privacy Policy to learn more. By continuing to use the site, you agree to this use of cookies and data.
  • In Österreich
  • Länderverzeichnis
  • Für 7 Tage
  • Wassertemperatur
  • Satellitenkarten
  • Wetterkarte
  • News
  • Widgets
  • user-avatar
    Anmelden

    Stündliche Wetter Bogdanow

    Heute, 20 Juli, Samstag

    Zeit Temperatur Niederschläge Wind Luftdruck Luftfeuchtigkeit
    00:00 +17°C° 0 mm 2 m/S 750 mmHg 90%
    01:00 +17°C° 0 mm 2 m/S 750 mmHg 92%
    02:00 +17°C° 0 mm 2 m/S 750 mmHg 93%
    03:00 +16°C° 0 mm 2 m/S 750 mmHg 93%
    04:00 +16°C° 0 mm 2 m/S 750 mmHg 93%
    05:00 +17°C° 0 mm 2 m/S 750 mmHg 89%
    06:00 +19°C° 0 mm 2 m/S 750 mmHg 84%
    07:00 +20°C° 0 mm 2 m/S 751 mmHg 80%
    08:00 +23°C° 0 mm 2 m/S 751 mmHg 72%
    09:00 +24°C° 0 mm 2 m/S 751 mmHg 64%
    10:00 +26°C° 0 mm 2 m/S 751 mmHg 57%
    11:00 +27°C° 0 mm 2 m/S 751 mmHg 54%
    12:00 +28°C° 0 mm 2 m/S 751 mmHg 51%
    13:00 +28°C° 0 mm 2 m/S 750 mmHg 48%
    14:00 +28°C° 0 mm 2 m/S 750 mmHg 49%
    15:00 +28°C° 0 mm 2 m/S 750 mmHg 51%
    16:00 +28°C° 0 mm 2 m/S 750 mmHg 52%
    17:00 +27°C° 0 mm 2 m/S 750 mmHg 55%
    18:00 +26°C° 0 mm 1 m/S 750 mmHg 58%
    19:00 +25°C° 0 mm 1 m/S 750 mmHg 61%
    20:00 +25°C° 0 mm 1 m/S 750 mmHg 62%
    21:00 +24°C° 0 mm 2 m/S 750 mmHg 64%
    22:00 +23°C° 0 mm 2 m/S 751 mmHg 65%
    23:00 +21°C° 0 mm 3 m/S 750 mmHg 68%

    Morgen, 21 Juli, Sonntag

    Zeit Temperatur Niederschläge Wind Luftdruck Luftfeuchtigkeit
    00:00 +21°C° 0 mm 3 m/S 750 mmHg 70%
    01:00 +21°C° 0 mm 3 m/S 750 mmHg 73%
    02:00 +20°C° 0.2 mm 3 m/S 750 mmHg 75%
    03:00 +20°C° 0.2 mm 3 m/S 750 mmHg 78%
    04:00 +20°C° 0.2 mm 3 m/S 750 mmHg 81%
    05:00 +21°C° 0 mm 3 m/S 750 mmHg 79%
    06:00 +22°C° 0 mm 4 m/S 750 mmHg 78%
    07:00 +23°C° 0 mm 4 m/S 750 mmHg 76%
    08:00 +25°C° 0.1 mm 4 m/S 750 mmHg 72%
    09:00 +26°C° 0.1 mm 5 m/S 750 mmHg 67%
    10:00 +27°C° 0.1 mm 5 m/S 750 mmHg 63%
    11:00 +28°C° 0.2 mm 6 m/S 750 mmHg 59%
    12:00 +29°C° 0.2 mm 6 m/S 751 mmHg 56%
    13:00 +29°C° 0.2 mm 6 m/S 751 mmHg 52%
    14:00 +28°C° 0.4 mm 6 m/S 751 mmHg 55%
    15:00 +28°C° 0.4 mm 6 m/S 751 mmHg 57%
    16:00 +27°C° 0.4 mm 6 m/S 751 mmHg 60%
    17:00 +26°C° 0.1 mm 5 m/S 752 mmHg 64%
    18:00 +25°C° 0.1 mm 5 m/S 752 mmHg 68%
    19:00 +23°C° 0.1 mm 4 m/S 752 mmHg 71%
    20:00 +21°C° 0.1 mm 4 m/S 753 mmHg 76%
    21:00 +20°C° 0.1 mm 3 m/S 753 mmHg 80%
    22:00 +19°C° 0.1 mm 3 m/S 754 mmHg 85%
    23:00 +18°C° 0 mm 3 m/S 754 mmHg 86%

    übermorgen, 22 Juli, Montag

    Zeit Temperatur Niederschläge Wind Luftdruck Luftfeuchtigkeit
    00:00 +18°C° 0 mm 3 m/S 754 mmHg 88%
    01:00 +17°C° 0 mm 3 m/S 754 mmHg 90%
    02:00 +17°C° 0 mm 3 m/S 754 mmHg 91%
    03:00 +16°C° 0 mm 3 m/S 755 mmHg 92%
    04:00 +16°C° 0 mm 3 m/S 755 mmHg 93%
    05:00 +17°C° 0 mm 3 m/S 755 mmHg 89%
    06:00 +18°C° 0 mm 4 m/S 755 mmHg 84%
    07:00 +19°C° 0 mm 5 m/S 755 mmHg 80%
    08:00 +19°C° 0 mm 5 m/S 756 mmHg 75%
    09:00 +20°C° 0 mm 5 m/S 756 mmHg 70%
    10:00 +21°C° 0 mm 5 m/S 756 mmHg 65%
    11:00 +22°C° 0 mm 5 m/S 756 mmHg 61%
    12:00 +23°C° 0 mm 5 m/S 756 mmHg 56%
    13:00 +23°C° 0 mm 6 m/S 756 mmHg 52%
    14:00 +23°C° 0 mm 6 m/S 755 mmHg 51%
    15:00 +23°C° 0 mm 6 m/S 755 mmHg 50%
    16:00 +23°C° 0 mm 6 m/S 755 mmHg 50%
    17:00 +22°C° 0 mm 5 m/S 755 mmHg 54%
    18:00 +21°C° 0 mm 4 m/S 755 mmHg 57%
    19:00 +21°C° 0 mm 3 m/S 755 mmHg 61%
    20:00 +20°C° 0 mm 3 m/S 755 mmHg 64%
    21:00 +19°C° 0 mm 3 m/S 756 mmHg 67%
    22:00 +18°C° 0 mm 3 m/S 756 mmHg 69%
    23:00 +17°C° 0 mm 2 m/S 756 mmHg 73%

    23 Juli, Dienstag

    Zeit Temperatur Niederschläge Wind Luftdruck Luftfeuchtigkeit
    00:00 +16°C° 0 mm 2 m/S 756 mmHg 76%
    01:00 +16°C° 0 mm 2 m/S 755 mmHg 79%
    02:00 +15°C° 0 mm 2 m/S 755 mmHg 81%
    03:00 +15°C° 0 mm 2 m/S 755 mmHg 83%
    04:00 +14°C° 0 mm 2 m/S 755 mmHg 85%
    05:00 +16°C° 0 mm 2 m/S 755 mmHg 80%
    06:00 +18°C° 0 mm 3 m/S 755 mmHg 75%
    07:00 +19°C° 0 mm 3 m/S 755 mmHg 70%
    08:00 +19°C° 0 mm 3 m/S 755 mmHg 68%
    09:00 +20°C° 0 mm 4 m/S 755 mmHg 67%
    10:00 +20°C° 0 mm 4 m/S 755 mmHg 65%
    11:00 +21°C° 0 mm 4 m/S 755 mmHg 61%
    12:00 +23°C° 0 mm 4 m/S 755 mmHg 57%
    13:00 +25°C° 0 mm 5 m/S 754 mmHg 54%
    14:00 +26°C° 0 mm 4 m/S 754 mmHg 54%
    15:00 +26°C° 0 mm 4 m/S 754 mmHg 55%
    16:00 +26°C° 0 mm 4 m/S 754 mmHg 55%
    17:00 +26°C° 0 mm 3 m/S 754 mmHg 60%
    18:00 +25°C° 0 mm 2 m/S 754 mmHg 65%
    19:00 +24°C° 0 mm 2 m/S 753 mmHg 69%
    20:00 +23°C° 0 mm 1 m/S 753 mmHg 74%
    21:00 +22°C° 0 mm 1 m/S 754 mmHg 79%
    22:00 +21°C° 0 mm 1 m/S 754 mmHg 84%
    23:00 +20°C° 0 mm 1 m/S 754 mmHg 86%

    24 Juli, Mittwoch

    Zeit Temperatur Niederschläge Wind Luftdruck Luftfeuchtigkeit
    00:00 +20°C° 0 mm 1 m/S 754 mmHg 88%
    01:00 +20°C° 0 mm 1 m/S 754 mmHg 90%
    02:00 +19°C° 0 mm 2 m/S 753 mmHg 91%
    03:00 +18°C° 0 mm 2 m/S 753 mmHg 92%
    04:00 +18°C° 0 mm 2 m/S 753 mmHg 93%
    05:00 +19°C° 0 mm 2 m/S 753 mmHg 88%
    06:00 +21°C° 0 mm 2 m/S 753 mmHg 82%
    07:00 +22°C° 0 mm 3 m/S 753 mmHg 76%
    08:00 +25°C° 0 mm 3 m/S 753 mmHg 67%
    09:00 +26°C° 0 mm 4 m/S 753 mmHg 59%
    10:00 +28°C° 0 mm 4 m/S 753 mmHg 50%
    11:00 +29°C° 0 mm 4 m/S 753 mmHg 47%
    12:00 +30°C° 0 mm 4 m/S 753 mmHg 44%
    13:00 +32°C° 0 mm 4 m/S 753 mmHg 40%
    14:00 +32°C° 0 mm 4 m/S 753 mmHg 40%
    15:00 +32°C° 0 mm 4 m/S 753 mmHg 40%
    16:00 +31°C° 0 mm 3 m/S 752 mmHg 40%
    17:00 +30°C° 0 mm 3 m/S 752 mmHg 46%
    18:00 +28°C° 0 mm 2 m/S 752 mmHg 51%
    19:00 +27°C° 0 mm 1 m/S 752 mmHg 57%
    20:00 +26°C° 0 mm 1 m/S 753 mmHg 60%
    21:00 +24°C° 0 mm 1 m/S 753 mmHg 63%
    22:00 +21°C° 0 mm 0 m/S 753 mmHg 66%
    23:00 +20°C° 0 mm 0 m/S 753 mmHg 69%

    25 Juli, Donnerstag

    Zeit Temperatur Niederschläge Wind Luftdruck Luftfeuchtigkeit
    00:00 +20°C° 0 mm 0 m/S 754 mmHg 71%
    01:00 +19°C° 0 mm 0 m/S 754 mmHg 73%
    02:00 +21°C° 0 mm 1 m/S 754 mmHg 74%
    03:00 +21°C° 0 mm 1 m/S 754 mmHg 75%
    04:00 +20°C° 0 mm 1 m/S 754 mmHg 77%
    05:00 +22°C° 0 mm 1 m/S 754 mmHg 71%
    06:00 +23°C° 0 mm 1 m/S 754 mmHg 66%
    07:00 +25°C° 0 mm 1 m/S 754 mmHg 60%
    08:00 +27°C° 0 mm 1 m/S 754 mmHg 55%
    09:00 +28°C° 0 mm 2 m/S 754 mmHg 49%
    10:00 +30°C° 0 mm 2 m/S 754 mmHg 43%
    11:00 +31°C° 0 mm 2 m/S 754 mmHg 40%
    12:00 +32°C° 0 mm 2 m/S 754 mmHg 36%
    13:00 +32°C° 0 mm 2 m/S 754 mmHg 32%
    14:00 +33°C° 0 mm 3 m/S 754 mmHg 31%
    15:00 +33°C° 0 mm 3 m/S 754 mmHg 31%
    16:00 +33°C° 0 mm 3 m/S 753 mmHg 30%
    17:00 +31°C° 0 mm 3 m/S 754 mmHg 36%
    18:00 +29°C° 0 mm 3 m/S 754 mmHg 43%
    19:00 +27°C° 0 mm 3 m/S 754 mmHg 49%
    20:00 +25°C° 0 mm 3 m/S 754 mmHg 53%
    21:00 +24°C° 0 mm 3 m/S 754 mmHg 58%
    22:00 +22°C° 0 mm 3 m/S 754 mmHg 63%
    23:00 +21°C° 0 mm 3 m/S 755 mmHg 68%
    Mehr zeigen